Regional Weather Roundup
Issued by NWS

Home | Current Version | Previous Version | Text Only | Print | Product List | Glossary On
Versions: 1 2 3 4 5 6 7 8 9 10 11 12 13 14 15 16 17 18 19 20 21 22 23 24 25 26 27 28 29 30 31 32 33 34 35 36 37 38 39 40 41 42 43 44 45 46 47 48 49 50
000
ASUS45 KSLC 281210
RWRUT

UTAH REGIONAL WEATHER ROUNDUP
NATIONAL WEATHER SERVICE SALT LAKE CITY UT
600 AM MDT THU MAY 28 2015

UTZ001>011-023>025-281300-

NORTHERN UTAH

CITY           SKY/WX    TMP DP  RH WIND       PRES   REMARKS
BRIGHAM CITY   MOCLDY    51  47  86 CALM      30.10S
HILL AFB       TSTM      52  50  93 W12G20    30.14R FOG
LOGAN          MOCLDY    46  43  89 CALM      30.10R
OGDEN          HVY RAIN  50  46  86 W10G25    30.12R FOG
PROVO AIRPORT  CLEAR     46  39  76 CALM      30.10F
SALT LAKE CITY MOCLDY    52  47  83 S3        30.09R
VERNAL         CLEAR     45  42  89 CALM      30.13R
WENDOVER       MOCLDY    52  46  82 W6        30.08S
HEBER CITY     CLEAR     39  37  93 CALM      30.15S
WEST JORDAN    CLEAR     50  46  87 S9        30.10R

$$

UTZ012>022-026-027-281300-

SOUTHERN/CENTRAL UTAH

CITY           SKY/WX    TMP DP  RH WIND       PRES   REMARKS
BLANDING       PTCLDY    50  40  67 CALM      30.19S
BRYCE CANYON   PTCLDY    36  34  92 SW6       30.22S WCI  31
CEDAR CITY     PTCLDY    44  41  89 SW6       30.10F
DELTA          CLEAR     44  42  91 E5        30.09S
HANKSVILLE     CLEAR     48  43  81 CALM      30.11S
MILFORD        MOCLDY    47  44  90 CALM      30.09F
MOAB/CYNLANDS  CLEAR     48  43  82 CALM      30.10R
PRICE          CLEAR     44  38  79 N3        30.13F
ST GEORGE      SUNNY     63  37  39 E7        30.02S
KANAB          CLEAR     45  39  81 NE3       30.14R

$$

REGIONAL REPORTS     COLORADO/ARIZONA

CITY           SKY/WX    TMP DP  RH WIND       PRES   REMARKS
CRAIG, CO      CLOUDY    46  44  93 CALM      30.16R
GRAND JUNCTION PTCLDY    49  47  93 E5        30.10F
RIFLE          MOCLDY    47  44  90 SE5       30.16S
MONTROSE       CLEAR     45  43  93 SE7       30.18R
CORTEZ         CLEAR     41  38  89 CALM      30.13R
PAGE, AZ       CLEAR     59  43  55 SE3       30.06S
GRAND CANYON   CLEAR     34  31  88 CALM      30.19S
KINGMAN        CLEAR     61  20  20 S7        30.00S
FLAGSTAFF      CLEAR     36  29  75 CALM      30.20S

$$

REGIONAL REPORTS    NEVADA/IDAHO/WYOMING

CITY           SKY/WX    TMP DP  RH WIND       PRES   REMARKS
LAS VEGAS, NV  CLEAR     73  34  23 VRB3      29.88R
ELY            CLEAR     38  37  97 CALM      30.15F
ELKO           CLEAR     47  43  86 NE3       30.10S
POCATELLO, ID  PTCLDY    43  43 100 S3        30.08S
BURLEY         PTCLDY    44  41  89 CALM      30.06S
EVANSTON, WY   CLEAR     38  36  92 S6        30.16S WCI  33
ROCK SPRINGS   PTCLDY    43  39  86 SW12      30.15R
KEMMERER       CLEAR     37  36  93 W3        30.17S

$$


USA.gov is the U.S. government's official web portal to all federal, state and local government web resources and services.